Погода Приморско-Ахтарск

Погода Приморско-Ахтарск : погода сейчас, прогноз погоды и архив. Всё, что Вы хотите узнать о погоде Приморско-Ахтарск!

Хотите узнать прогноз погоды Приморско-Ахтарск? Тогда Вам сюда: Погода Приморско-Ахтарск

Поиск расширенной информации на нашем сайте:

Другие новости

Новости СМИ2

Главная страница сайта

Новости сайта

03.07.2017

Напоминаем, что на нашем специализированном сайте Метеоцентр.Азия вы можете получить высокодетализированные автоматические прогнозы погоды по пунктам России, СНГ и мира в авиационном формате (включающие направление и скорость ветра, видимость, явления погоды, количество и форму облачности, нижнюю и верхнюю границу облачности).

Рекомендуем: Увеличение продаж цена: как правильно применять вилку цен для увеличения продаж.

Погода Приморско-Ахтарск - сегодня

Время (UTC), дата Ветер
(°,м/с) 
Видим.   Явления Облачность Т
(°С)
Тd
(°С)
f(%) Тe
(°С)
Pmin
(гПа)
dP
(гПа)
Po
(мм)
O2
(г/м3)
Тmin Tmax R s Состояние
почвы
21 17.04.18 320 (СЗ) 10 км    4/4 600 м 
[Sc]
+13.4 +4.9 56 +15  1022  0.1  766  294           
00 18.04.18 280 (З) 10 км    ясно 
+11.9 +6.3 69 +13  1021.7  -0.3  766  295           
03 18.04.18 290 (З) 10 км    8/0 средняя, верхняя 
[Ac trans|Ci]
+11.6 +7.6 76 +13  1021.5  0.1  766  295  +10.7        сухая 
06 18.04.18 290 (З) 10 км    10/0 средняя, верхняя 
[Ac As|Ci fib]
+15.3 +7.5 60 +16  1022.2  0.7  766  291           
09 18.04.18 230 (ЮЗ) 10 км    10/0 средняя 
[Ac As]
+17.4 +5.8 46 +19  1021.7  -0.5  766  289           
12 18.04.18 250 (З) 10 км    10/0 верхняя 
[Ci sp]
+20.3 +4.1 34 +20  1020.7  -1  765  286           
15 18.04.18 230 (ЮЗ) 10 км    6/0 верхняя 
[Ci fib]
+19 +7 46 +20  1018.4  -2.3  763  286    +20.7       
18 18.04.18 230 (ЮЗ) 10 км    3/0 средняя 
[Ac trans]
+14.8 +9 68 +15  1018  -0.4  763  290           
21 18.04.18 240 (ЮЗ) 10 км    9/9 600 м 
[Sc]
+13.7 +9.7 77 +14  1016.6  -1.4  762  291           
00 19.04.18 280 (З) 10 км    ясно 
+13.1 +10.6 85 +15  1015.4  -1.1  761  291           
03 19.04.18 290 (З) 10 км    3/3 600 м 
[Sc]
+12.3 +9.2 81 +12  1014.5  -0.9  761  292  +12.3        сухая 
06 19.04.18 250 (З) 10 км    10/10 600 м 
[Cu Sc]
+14.7 +7.6 62 +16  1013.4  -1.1  760  289  +12         
09 19.04.18 250 (З) 10 км  {ливн. осадки}  10/10 600 м кучево-дожд. 
[Cb calv]
+13.1 +7.7 70 +14  1011.7  -1.7  758  290           
12 19.04.18 260 (З) 4-11{11}  10 км  {ливн. осадки}  10/5 600 м кучево-дожд., средняя 
[Cb calv|Ac und]
+15.6 +6.1 53 +16  1009.5  -2.1  757  288           
15 19.04.18 260 (З) 10 км  в посл. час ливневой дождь  10/10 600 м кучево-дожд. 
[Cb calv]
+13 +6.8 66 +13  1009.3  -0.3  757  290    +16.7  0.0     
18 19.04.18 270 (З) 5-11{11}  10 км  в посл. час ливневой дождь  8/8 600 м кучево-дожд. 
[Cb calv]
+11.7 +8.4 80 +11  1007.8  -1  755  290           
21 19.04.18 280 (З) 4{11}  10 км  в посл. час ливневой дождь  5/5 600 м кучево-дожд. 
[Cb calv]
+11.2 +8.1 81 +10  1006.6  -1.2  755  291           
00 20.04.18 290 (З) 4{11}  10 км  {ливн. осадки}  8/8 600 м 
[Sc diur, vesp]
+10.6 +7 78 +10  1006.1  -0.4  754  291           
03 20.04.18 300 (СЗ) 10 км  в посл. час ливневой дождь  10/10 600 м кучево-дожд. 
[Cb calv]
+10 +7.6 85 +9  1005.8  -0.4  754  292  +10    0.0     
06 20.04.18 300 (СЗ) 5{11}  10 км  {ливн. осадки}  10/10 600 м кучево-дожд. 
[Cb calv]
+10.4 +7.2 81 +9  1006.4  0.6  754  292  +9.9         
09 20.04.18 300 (СЗ) 10 км  {ливн. осадки}  10/10 600 м кучево-дожд. 
[Cb calv]
+11.5 +7.1 74 +10  1007.9  1.6  756  291           
12 20.04.18 310 (СЗ) 3{10}  10 км  {ливн. осадки}  10/8 600 м кучево-дожд., средняя 
[Cb calv|Ac trans]
+12 +7.3 73 +12  1009.3  1.3  757  291           
15 20.04.18 300 (СЗ) 10 км  {ливн. осадки}  4/3 600 м средняя 
[Cu hum|Ac trans]
+12.3 +7.9 74 +12  1010.3  757  291    +13.5  0.3     
18 20.04.18 350 (С) 10 км  {ливн. осадки}  10/10 600 м 
[Sc]
+12.4 +6.8 69 +12  1012.6  2.3  759  291           
21 20.04.18 010 (С) 10 км    10/10 600 м 
[Sc]
+12.2 +7 70 +13  1013.5  0.9  760  292           
Время (UTC), дата Ветер
(°,м/с) 
Видим.   Явления Облачность Т
(°С)
Тd
(°С)
f(%) Тe
(°С)
Pmin
(гПа)
dP
(гПа)
Po
(мм)
O2
(г/м3)
Тmin Tmax R s Состояние
почвы

Для получения пояснительной информации подведите курсор к названию столбца.

ПОГОДА Приморско-Ахтарск - архив

Всё, что Вы хотите узнать о погоде Приморско-Ахтарск - удобно и подробно!

Выберите нужную дату (начиная с 1 января 2015* года) и нажмите кнопку "Найти".
Будут отображены архивные сводки погоды по пункту Приморско-Ахтарск, начиная с указанной даты.


Отображать данные в формате CSV (для использования в таблицах Excel)


Внимание! Наш архив погоды предназначен исключительно для личного некоммерческого использования в познавательных целях. Если Вам необходимы официальные справки о состоянии погоды (для производственных, юридических, коммерческих и т.п. целей), обращайтесь в органы Росгидромета.

*Примечание: данная дата относится к архиву по метеостанциям СССР (Россия, СНГ, Балтия).
Архив по метеостанциям Зарубежной Европы и Азии (кроме Китая) хранится 10 дней, по другим регионам земного шара (Китай, Африка, Америка, Австралия, Океания) - 1 день.

Приморско-Ахтарск - район местоположения метеостанции


Название, широта, долгота, высота метеостанции:
Приморско-Ахтарск 46°ш. 38.2°д. 5 м над ур. моря [Российская Федерация]

Дополнительная информация

В oтличие oт бoльшинства пoгoдных сайтoв мы публикуем пoдрoбную метеoинфoрмацию в детальнoм прoфессиoнальнoм фoрмате.

Характеристики температуры и влажнoсти вoздуха измеряются на высoте 2 м в тени вдали oт зданий и деревьев.
Скoрoсть ветра измеряется на высoте 10 м (на урoвне рoста челoвека скoрoсть ветра ниже в 1.5-2 раза). Если метеoстанция нахoдится в гoрoде или в лесу, тo скoрoсть ветра занижена на 2-4 м/с пo сравнению с oткрытым местoм. Скoрoсть ветра над акватoриями крупных рек и oзёр, а также на вершинах хoлмoв на 2-5 м/с выше, чем в oбычных услoвиях.
Атмoсфернoе давление в разных тoчках местнoсти мoжет значительнo oтличаться oт давления на метеoстанции, в зависимoсти oт услoвий рельефа (при пoдъёме на 10 м давление пoнижается примернo на 1 мм рт.ст.).